When you browse on this site, cookies collect data to enhance your experience and personalize the content and advertising you see.
Visit our Privacy Policy to learn more. By continuing to use the site, you agree to this use of cookies and data.
  • In Hungary
  • List of Countries
  • For 7 days
  • Water Temperature
  • Weather Map
  • News
  • Weather Widgets
  • user-avatar
    Login

    Hourly Weather Sassuolo

    Today, 17 November, Sunday

    Time Temperature Precipitation Wind Pressure Humidity
    00:00 +7°C° 7 mm 3 mps 744 mmHg 96%
    01:00 +6°C° 0 mm 2 mps 743 mmHg 96%
    02:00 +6°C° 8.3 mm 2 mps 742 mmHg 97%
    03:00 +5°C° 8.3 mm 2 mps 742 mmHg 97%
    04:00 +4°C° 8.3 mm 3 mps 741 mmHg 97%
    05:00 +5°C° 3.8 mm 2 mps 740 mmHg 97%
    06:00 +6°C° 3.8 mm 1 mps 740 mmHg 96%
    07:00 +5°C° 0 mm 2 mps 740 mmHg 95%
    08:00 +6°C° 0.3 mm 2 mps 740 mmHg 95%
    09:00 +7°C° 0.3 mm 2 mps 740 mmHg 95%
    10:00 +7°C° 0.3 mm 2 mps 740 mmHg 95%
    11:00 +8°C° 0.4 mm 3 mps 740 mmHg 92%
    12:00 +10°C° 0.4 mm 4 mps 740 mmHg 88%
    13:00 +10°C° 0.4 mm 5 mps 741 mmHg 85%
    14:00 +10°C° 0 mm 4 mps 741 mmHg 86%
    15:00 +9°C° 0 mm 3 mps 742 mmHg 87%
    16:00 +8°C° 0 mm 3 mps 742 mmHg 88%
    17:00 +7°C° 0 mm 2 mps 743 mmHg 88%
    18:00 +7°C° 0 mm 2 mps 744 mmHg 89%
    19:00 +7°C° 0 mm 1 mps 744 mmHg 89%
    20:00 +7°C° 0 mm 1 mps 745 mmHg 89%
    21:00 +7°C° 0 mm 1 mps 745 mmHg 89%
    22:00 +7°C° 0 mm 1 mps 745 mmHg 89%
    23:00 +7°C° 0.1 mm 1 mps 746 mmHg 89%

    Tomorrow, 18 November, Monday

    Time Temperature Precipitation Wind Pressure Humidity
    00:00 +7°C° 0.1 mm 1 mps 746 mmHg 89%
    01:00 +8°C° 0.1 mm 1 mps 746 mmHg 89%
    02:00 +7°C° 0 mm 1 mps 746 mmHg 89%
    03:00 +7°C° 0 mm 1 mps 746 mmHg 89%
    04:00 +7°C° 0 mm 1 mps 746 mmHg 89%
    05:00 +6°C° 0 mm 2 mps 747 mmHg 89%
    06:00 +6°C° 0 mm 2 mps 747 mmHg 88%
    07:00 +6°C° 0 mm 2 mps 748 mmHg 87%
    08:00 +8°C° 0 mm 1 mps 748 mmHg 86%
    09:00 +8°C° 0 mm 1 mps 748 mmHg 85%
    10:00 +9°C° 0 mm 1 mps 749 mmHg 83%
    11:00 +10°C° 0 mm 1 mps 749 mmHg 82%
    12:00 +10°C° 0 mm 1 mps 749 mmHg 81%
    13:00 +11°C° 0 mm 1 mps 749 mmHg 80%
    14:00 +10°C° 0.2 mm 1 mps 749 mmHg 82%
    15:00 +9°C° 0.2 mm 0 mps 749 mmHg 84%
    16:00 +9°C° 0.2 mm 0 mps 749 mmHg 86%
    17:00 +9°C° 1.6 mm 1 mps 749 mmHg 89%
    18:00 +9°C° 1.6 mm 1 mps 750 mmHg 92%
    19:00 +9°C° 1.6 mm 1 mps 750 mmHg 95%
    20:00 +9°C° 1.5 mm 1 mps 750 mmHg 95%
    21:00 +9°C° 1.5 mm 1 mps 750 mmHg 95%
    22:00 +8°C° 1.5 mm 2 mps 750 mmHg 95%
    23:00 +8°C° 1.6 mm 2 mps 750 mmHg 96%

    Day after tomorrow, 19 November, Tuesday

    Time Temperature Precipitation Wind Pressure Humidity
    00:00 +8°C° 1.6 mm 2 mps 750 mmHg 96%
    01:00 +8°C° 1.6 mm 2 mps 750 mmHg 96%
    02:00 +9°C° 0.5 mm 3 mps 749 mmHg 96%
    03:00 +9°C° 0.5 mm 3 mps 749 mmHg 96%
    04:00 +8°C° 0.5 mm 4 mps 749 mmHg 96%
    05:00 +9°C° 1.5 mm 3 mps 749 mmHg 96%
    06:00 +9°C° 1.5 mm 3 mps 749 mmHg 96%
    07:00 +9°C° 1.5 mm 3 mps 749 mmHg 96%
    08:00 +9°C° 1.6 mm 2 mps 750 mmHg 96%
    09:00 +9°C° 1.6 mm 2 mps 750 mmHg 96%
    10:00 +9°C° 1.6 mm 2 mps 751 mmHg 97%
    11:00 +10°C° 0.8 mm 2 mps 750 mmHg 96%
    12:00 +10°C° 0.8 mm 2 mps 750 mmHg 95%
    13:00 +11°C° 0.8 mm 1 mps 750 mmHg 95%
    14:00 +11°C° 0.1 mm 1 mps 751 mmHg 95%
    15:00 +11°C° 0.1 mm 1 mps 751 mmHg 95%
    16:00 +11°C° 0.1 mm 1 mps 751 mmHg 95%
    17:00 +11°C° 0.3 mm 1 mps 751 mmHg 95%
    18:00 +11°C° 0.3 mm 1 mps 751 mmHg 95%
    19:00 +11°C° 0.3 mm 1 mps 751 mmHg 96%
    20:00 +11°C° 0.1 mm 1 mps 751 mmHg 96%
    21:00 +11°C° 0.1 mm 1 mps 752 mmHg 96%
    22:00 +11°C° 0.1 mm 1 mps 752 mmHg 96%
    23:00 +10°C° 0 mm 1 mps 752 mmHg 96%

    20 November, Wednesday

    Time Temperature Precipitation Wind Pressure Humidity
    00:00 +10°C° 0 mm 1 mps 752 mmHg 96%
    01:00 +10°C° 0 mm 1 mps 752 mmHg 96%
    02:00 +10°C° 0 mm 1 mps 752 mmHg 96%
    03:00 +10°C° 0 mm 1 mps 752 mmHg 95%
    04:00 +10°C° 0 mm 1 mps 752 mmHg 95%
    05:00 +10°C° 0 mm 1 mps 752 mmHg 95%
    06:00 +10°C° 0 mm 1 mps 752 mmHg 94%
    07:00 +10°C° 0 mm 1 mps 752 mmHg 94%
    08:00 +11°C° 0 mm 1 mps 752 mmHg 92%
    09:00 +11°C° 0 mm 1 mps 752 mmHg 91%
    10:00 +12°C° 0 mm 1 mps 753 mmHg 90%
    11:00 +12°C° 0 mm 1 mps 753 mmHg 88%
    12:00 +12°C° 0 mm 1 mps 752 mmHg 86%
    13:00 +13°C° 0 mm 1 mps 752 mmHg 84%
    14:00 +13°C° 0 mm 1 mps 752 mmHg 85%
    15:00 +12°C° 0 mm 1 mps 752 mmHg 86%
    16:00 +12°C° 0 mm 1 mps 752 mmHg 87%
    17:00 +12°C° 0 mm 1 mps 752 mmHg 89%
    18:00 +11°C° 0 mm 1 mps 752 mmHg 90%
    19:00 +11°C° 0 mm 1 mps 752 mmHg 92%
    20:00 +10°C° 0 mm 1 mps 752 mmHg 91%
    21:00 +10°C° 0 mm 1 mps 752 mmHg 91%
    22:00 +10°C° 0 mm 1 mps 752 mmHg 90%
    23:00 +10°C° 0 mm 1 mps 752 mmHg 90%

    21 November, Thursday

    Time Temperature Precipitation Wind Pressure Humidity
    00:00 +10°C° 0 mm 1 mps 752 mmHg 89%
    01:00 +10°C° 0 mm 1 mps 752 mmHg 89%
    02:00 +10°C° 0 mm 1 mps 751 mmHg 89%
    03:00 +9°C° 0 mm 1 mps 751 mmHg 90%
    04:00 +8°C° 0 mm 0 mps 751 mmHg 90%
    05:00 +8°C° 0 mm 0 mps 751 mmHg 90%
    06:00 +8°C° 0 mm 0 mps 751 mmHg 91%
    07:00 +9°C° 0 mm 1 mps 751 mmHg 91%
    08:00 +9°C° 0 mm 0 mps 751 mmHg 88%
    09:00 +10°C° 0 mm 0 mps 751 mmHg 86%
    10:00 +11°C° 0 mm 0 mps 751 mmHg 83%
    11:00 +12°C° 0 mm 1 mps 751 mmHg 81%
    12:00 +13°C° 0 mm 1 mps 751 mmHg 79%
    13:00 +14°C° 0 mm 1 mps 751 mmHg 77%
    14:00 +13°C° 0.1 mm 1 mps 751 mmHg 80%
    15:00 +13°C° 0.1 mm 1 mps 751 mmHg 82%
    16:00 +12°C° 0.1 mm 1 mps 751 mmHg 85%
    17:00 +12°C° 0 mm 1 mps 751 mmHg 86%
    18:00 +11°C° 0 mm 1 mps 751 mmHg 87%
    19:00 +10°C° 0 mm 1 mps 751 mmHg 89%
    20:00 +10°C° 0 mm 1 mps 752 mmHg 88%
    21:00 +10°C° 0 mm 1 mps 752 mmHg 88%
    22:00 +10°C° 0 mm 1 mps 752 mmHg 88%
    23:00 +10°C° 0 mm 1 mps 752 mmHg 88%

    22 November, Friday

    Time Temperature Precipitation Wind Pressure Humidity
    00:00 +9°C° 0 mm 1 mps 752 mmHg 89%
    01:00 +9°C° 0 mm 1 mps 752 mmHg 89%
    02:00 +9°C° 0 mm 1 mps 752 mmHg 89%
    03:00 +9°C° 0 mm 1 mps 751 mmHg 90%
    04:00 +9°C° 0 mm 1 mps 751 mmHg 90%
    05:00 +9°C° 0 mm 1 mps 751 mmHg 91%
    06:00 +9°C° 0 mm 1 mps 751 mmHg 91%
    07:00 +9°C° 0 mm 1 mps 752 mmHg 92%
    08:00 +10°C° 0 mm 1 mps 752 mmHg 90%
    09:00 +11°C° 0 mm 1 mps 752 mmHg 89%
    10:00 +12°C° 0 mm 1 mps 752 mmHg 88%
    11:00 +12°C° 0 mm 2 mps 752 mmHg 86%
    12:00 +13°C° 0 mm 2 mps 752 mmHg 85%
    13:00 +14°C° 0 mm 2 mps 752 mmHg 84%
    14:00 +13°C° 0.1 mm 2 mps 752 mmHg 86%
    15:00 +13°C° 0.1 mm 1 mps 752 mmHg 87%
    16:00 +13°C° 0.1 mm 1 mps 751 mmHg 89%
    17:00 +13°C° 0.2 mm 1 mps 751 mmHg 90%
    18:00 +12°C° 0.2 mm 1 mps 751 mmHg 91%
    19:00 +12°C° 0.2 mm 1 mps 752 mmHg 92%
    20:00 +12°C° 0.4 mm 1 mps 752 mmHg 92%
    21:00 +12°C° 0.4 mm 1 mps 752 mmHg 92%
    22:00 +12°C° 0.4 mm 1 mps 752 mmHg 92%
    23:00 +12°C° 0.2 mm 1 mps 752 mmHg 92%
    Show more